Regional Weather Roundup
Issued by NWS State College, PA

Home | Current Version | Previous Version | Text Only | Print | Product List | Glossary Off
Versions: 1 2 3 4 5 6 7 8 9 10 11 12 13 14 15 16 17 18 19 20 21 22 23 24 25 26 27 28 29 30 31 32 33 34 35 36 37 38 39 40 41 42 43 44 45 46 47 48 49 50

000
ASUS41 KCTP 310410
RWRCTP

REGIONAL WEATHER ROUNDUP
NATIONAL WEATHER SERVICE STATE COLLEGE PA
1200 AM EDT WED AUG 31 2016

Note: "fair" indicates few or no clouds below 12,000 feet with no
significant weather and/or obstructions to visibility.

* = STATION THAT DOES NOT REPORT PRECIPITATION /E.G. RAIN...SNOW...ETC/
    THUNDER OR FOG.

PAZ002>004-007>009-013>016-020>023-029>032-310500-
WESTERN PENNSYLVANIA

CITY           SKY/WX    TMP DP  RH WIND       PRES   REMARKS
ERIE           CLOUDY    71  64  78 S3        30.04F
MEADVILLE      CLOUDY    70  59  68 CALM      30.08F
FRANKLIN*        N/A     63  59  88 CALM      30.10S
NEW CASTLE     FAIR      62  60  93 CALM      30.07F
BEAVER COUNTY  NOT AVBL
BUTLER*        NOT AVBL
PITTSBURGH INT CLOUDY    66  57  72 CALM      30.08S
PITTSBURGH     CLEAR     72  54  53 SE5       30.08S
INDIANA*       CLEAR     63  61  94 CALM      30.12S
LATROBE        CLEAR     61  61 100 CALM      30.10S
WASHINGTON CO* PTCLDY    59  55  88 CALM      30.09F
$$

PAZ004>006-010>012-017>019-024>028-033>037-041-042-045-046-049>053-310500-
CENTRAL PENNSYLVANIA

CITY           SKY/WX    TMP DP  RH WIND       PRES   REMARKS
BRADFORD       MOCLDY    62  61  96 CALM      30.11F
DUBOIS         CLEAR     66  61  84 E3        30.10S
CLEARFIELD     NOT AVBL
JOHNSTOWN      CLEAR     68  57  68 SE3       30.14S
ALTOONA        CLEAR     62  61  96 CALM      30.12R
STATE COLLEGE  PTCLDY    64  59  85 CALM      30.09S
WILLIAMSPORT   PTCLDY    67  62  84 N6        30.04S
SELINSGROVE    CLEAR     63  63 100 CALM      30.06S
FT INDIANTOWN  PTCLDY    65  62  90 CALM      30.06S
CAPITAL CITY   CLOUDY    71  62  73 SW3       30.06R
HARRISBURG     CLOUDY    72  65  78 CALM      30.05R
YORK           PTCLDY    72  63  73 CALM      30.06S
$$

PAZ038>040-043-044-047-048-054-055-060>062-067>071-310500-
EASTERN PENNSYLVANIA

CITY           SKY/WX    TMP DP  RH WIND       PRES   REMARKS
SCRANTON       PTCLDY    67  60  78 E6        30.07S
MOUNT POCONO   PTCLDY    59  57  93 CALM      30.12S
ALLENTOWN      CLOUDY    67  60  78 NW5       30.06S
QUAKERTOWN*    PTCLDY    64  59  82 CALM      30.08R
READING        PTCLDY    68  61  78 CALM      30.05R
LANCASTER      CLOUDY    70  64  81 CALM      30.06S
COATESVILLE    PTCLDY    66  59  77 CALM      30.08F
POTTSTOWN      PTCLDY    66  60  81 CALM      30.07F
BLUE BELL      PTCLDY    68  68 100 CALM      30.05F
DOYLESTOWN     PTCLDY    73  70  90 CALM      30.06S
WILLOW GROVE   NOT AVBL
NORTH PHILA    MOCLDY    76  72  87 SE3       30.07F
PHILADELPHIA   MOCLDY    75  71  87 E5        30.06R
$$




USA.gov is the U.S. government's official web portal to all federal, state and local government web resources and services.